Starlink 2033

operational
NORAD ID: 47650 Int'l Des: 2021-012 Owner: SPXS Country: US Constellation: starlink
LEOCIRCULARSTARLINK_TYPE

Starlink 2033について

説明を読み込み中...

リアルタイム位置

3D地球を読み込み中...

次回通過

高度履歴

Altitude vs Time

uPlot chart will show altitude changes over time

軌道要素

1 47650U 21012AG 26033.45953528 -.00000472 00000-0 -12771-4 0 9990
2 47650 53.0564 209.7689 0001534 115.2678 244.8470 15.06396890274943
Epoch: Feb 2, 2026 • Age: 13 hours

現在のステータス

高度 549.7 km
速度 7.59 km/s
衛星直下点 36.21°N, 107.7°E
打ち上げ日 Feb 16, 2021
運用期間 4.9 years
タイプ internet

技術仕様

分類 Payload
質量 260.00 kg
乾燥質量 248.00 kg
総質量 260.00 kg
長さ 0.20 m
直径 2.80 m
スパン 9.00 m
形状 Box + pan
製造者 SPXS
バスタイプ Starlink
フェーズステータス In Orbit
所有者/国 SPXS/US

大規模コンステレーション

Loading constellations...